VE3KCY Weather Reports


time (UTC)temp
C
wind
direction
speed
KPH
gust
KPH
rain 1hr
cm
rain 24hr
cm
rain mn
cm
humidity
%
barometer
mb
20260503224527 8 203 1.6 8.0 0.00 0.28 0.28 86 1007.8
20260503223022 8 216 3.2 8.0 0.05 0.28 0.28 86 1007.9
20260503221528 8 260 3.2 9.7 0.08 0.28 0.28 86 1008.0
20260503220028 7 212 1.6 8.0 0.13 0.28 0.28 89 1008.0
20260503214519 7 248 3.2 8.0 0.18 0.28 0.28 89 1008.2
20260503213023 7 274 3.2 11.3 0.13 0.23 0.23 89 1008.4
20260503211527 7 258 4.8 14.5 0.13 0.20 0.20 88 1008.4
20260503210028 7 233 6.4 14.5 0.10 0.15 0.15 87 1008.3
20260503204527 7 266 4.8 19.3 0.08 0.10 0.10 86 1008.5
20260503203024 7 257 6.4 17.7 0.10 0.10 0.10 85 1008.6
20260503201504 7 219 6.4 16.1 0.08 0.08 0.08 84 1008.7
20260503200009 8 238 6.4 19.3 0.05 0.05 0.05 81 1008.8
20260503194512 8 236 6.4 29.0 0.03 0.03 0.03 78 1009.0
20260503193016 11 307 9.7 27.4 0.00 0.00 0.00 62 1008.7
20260503191519 12 226 14.5 35.4 0.00 0.00 0.00 51 1008.6
20260503190005 12 203 6.4 30.6 0.00 0.00 0.00 47 1008.3
20260503184516 13 196 6.4 24.1 0.00 0.00 0.00 47 1008.4
20260503183014 13 284 6.4 24.1 0.00 0.00 0.00 44 1008.5
20260503181519 13 266 6.4 27.4 0.00 0.00 0.00 43 1008.4
20260503180024 12 267 6.4 27.4 0.00 0.00 0.00 42 1008.7
20260503174507 13 216 6.4 24.1 0.00 0.00 0.00 44 1009.1
20260503173014 13 233 4.8 24.1 0.00 0.00 0.00 44 1009.2
20260503171517 13 253 4.8 19.3 0.00 0.00 0.00 43 1009.2
20260503081516 -3 260 0.0 0.0 0.00 0.00 0.00 79 1012.2
20260503071516 -1 260 0.0 0.0 0.00 0.00 0.00 71 1012.5
20260503054526 -1 266 0.0 0.0 0.00 0.00 0.00 68 1013.4
20260503053033 -1 266 0.0 3.2 0.00 0.00 0.00 66 1013.5
20260503051529 0 266 0.0 3.2 0.00 0.00 0.00 65 1013.6
20260503050016 0 264 0.0 3.2 0.00 0.00 0.00 65 1013.6
20260503044540 0 266 0.0 3.2 0.00 0.00 0.00 64 1013.7
20260503043003 0 266 0.0 3.2 0.00 0.00 0.00 64 1013.8
20260503041504 0 276 0.0 4.8 0.00 0.00 0.00 64 1013.9
20260503040013 0 261 1.6 3.2 0.00 0.00 0.00 64 1013.8
20260503034514 0 266 0.0 3.2 0.00 0.00 0.00 64 1013.8
20260503033018 -1 267 0.0 3.2 0.00 0.00 0.00 65 1013.8
20260503031504 -1 271 0.0 3.2 0.00 0.00 0.00 66 1013.8
20260503030008 -1 281 0.0 3.2 0.00 0.00 0.00 68 1013.9
20260503024512 -1 281 0.0 0.0 0.00 0.00 0.00 71 1014.1
20260503023020 -1 281 0.0 0.0 0.00 0.00 0.00 69 1014.2
20260503021521 -1 281 0.0 0.0 0.00 0.00 0.00 69 1014.2
20260503020006 -1 281 0.0 0.0 0.00 0.00 0.00 66 1014.2
20260503014509 0 281 0.0 0.0 0.00 0.00 0.00 64 1014.1
20260503013013 0 281 0.0 0.0 0.00 0.00 0.00 63 1014.1
20260503011517 0 281 0.0 0.0 0.00 0.00 0.00 60 1014.1
20260503010027 1 281 0.0 0.0 0.00 0.00 0.00 58 1013.9
20260503004506 1 281 0.0 1.6 0.00 0.00 0.00 56 1013.8
20260503003011 2 312 0.0 3.2 0.00 0.00 0.00 52 1013.7
20260503001514 3 305 0.0 3.2 0.00 0.00 0.00 49 1013.6
20260503000039 3 314 0.0 8.0 0.00 0.00 0.00 43 1013.6
20260502234525 4 354 1.6 6.4 0.00 0.00 0.00 41 1013.6
20260502233006 4 311 0.0 8.0 0.00 0.00 0.00 45 1013.7
20260502231515 5 360 1.6 12.9 0.00 0.00 0.00 1013.7
20260502230016 5 310 1.6 9.7 0.00 0.00 0.00 46 1013.7